Location: Москва
(55.7504°N, 37.6175°E)
Time: 20:51:03
(UTC+03:00)

Nauka - Visible Passes

Search period start: 25 September 2021 00:00
Search period end: 05 October 2021 00:00
Orbit: 419 x 423 km, 51.6° (Epoch: 24 September)

Date Brightness Start Highest point End Pass type
(mag) Time Alt. Az. Time Alt. Az. Time Alt. Az.
25 Sep ? 19:42:30 10° WSW 19:45:43 41° S 19:47:22 23° ESE visible
25 Sep ? 21:19:10 10° W 21:20:21 18° WSW 21:20:21 18° WSW visible
26 Sep ? 18:55:42 10° WSW 18:58:53 39° S 19:02:04 10° ESE visible
26 Sep ? 20:32:15 10° W 20:35:10 34° SSW 20:35:10 34° SSW visible
27 Sep ? 19:45:22 10° WSW 19:48:32 38° S 19:49:59 24° SE visible
27 Sep ? 21:22:22 10° WSW 21:22:59 13° WSW 21:22:59 13° WSW visible
28 Sep ? 18:58:30 10° WSW 19:01:42 40° S 19:04:49 10° ESE visible
28 Sep ? 20:35:18 10° WSW 20:37:48 23° SSW 20:37:48 23° SSW visible
29 Sep ? 19:48:19 10° W 19:51:17 29° SSW 19:52:39 21° SSE visible
30 Sep ? 19:01:23 10° W 19:04:28 33° SSW 19:07:32 10° SE visible
30 Sep ? 20:38:45 10° WSW 20:40:32 14° SW 20:40:32 14° SW visible
01 Oct ? 19:51:29 10° WSW 19:53:55 18° SSW 19:55:27 14° S visible
02 Oct ? 19:04:24 10° WSW 19:07:09 23° SSW 19:09:53 10° SSE visible
03 Oct ? 19:56:01 10° SW 19:56:24 10° SW 19:56:45 10° SSW visible
04 Oct ? 19:07:52 10° WSW 19:09:41 14° SSW 19:11:29 10° S visible
